User: anonymous   Login
Location: Unspecified
(0.0000°N, 0.0000°E)
Time: 20:02:15
(UTC+00:00)
Language:

STARLINK-5342 - Orbit

View from above orbital plane
View from above orbital plane
View from above satellite
View from above satellite

Ground track
Ground track

The orbit is defined by the following mean orbital elements,

1 56516U          26145.46469218 +.00000000 +00000-0 +56999-5 0 00007
2 56516  43.0031 138.7092 0001390 266.8946  93.1747 15.27579260    05
Epoch (UTC): 25 May 2026 11:09:09
Eccentricity: 0.0001390
inclination: 43.0031°
perigee height: 482 km
apogee height: 484 km
right ascension of ascending node: 138.7092°
argument of perigee: 266.8946°
revolutions per day: 15.27579260
mean anomaly at epoch: 93.1747°

The dashed part of the orbit path shows where the satellite is in the earth's shadow,  

DLR